Погода в Новосёловке

Украина / Одесская область     47°38′12″N   29°55′33″E
темп.,
°C
ветер,
м/с
пор.,
м/с
влажн.,
%
обл.,
%
осадки,
мм/ч
давл.,
гПа
погр.,
м
22 октября, пт
пт2200:00+12юз511580 0.0 1011254
03:00+10зюз33655 0.0 101140
06:00+11зюз235934 0.0 101227
09:00+14зюз275124 0.0 1013216
12:00+19з45429 0.0 10141173
15:00+21з673841 0.0 10131981
18:00+16сз3549100 0.0 101367
21:00+14зюз114493 0.0 101411
23 октября, сб
сб2300:00+13зюз3449100 0.0 101556
03:00+12сз3656100 0.0 1015100
06:00+11зсз3558100 0.0 1016109
09:00+12сз4758100 0.0 1018368
12:00+12сз5753100 0.0 1019907
15:00+14зсз68365 0.0 10191594
18:00+11сз48375 0.0 1020155
21:00+8сз354162 0.0 102287
24 октября, вс
вс2400:00+7зсз3745100 0.0 1024125
03:00+6зсз385343 0.0 1024151
06:00+4зсз410635 0.0 1025227
09:00+5сз510685 0.0 1027419
12:00+9сз68515 0.0 10271392
15:00+10ссз994446 0.0 10261708
18:00+6ссз710627 0.0 10291036
21:00+6ссз81152100 0.0 10301491
25 октября, пн
пн2500:00+4ссз48616 0.0 1031239
03:00+2сз3566100 0.0 103293
06:00+2сз366560 0.0 1033134
09:00+3с36625 0.0 1034251
12:00+7ссв34441 0.0 10341074
15:00+9ссв33320 0.0 10331190
18:00+6всв22390 0.0 103313
21:00+4вюв22475 0.0 103425
26 октября, вт
вт2600:00+3юв33515 0.0 103432
03:00+2юв33570 0.0 103439
06:00+1юв34615 0.0 103344
09:00+3юв36525 0.0 1033180
12:00+9ююв56385 0.0 1032807
15:00+11ююв56325 0.0 10291097
18:00+7ююв474138 0.0 1028113
21:00+4ююв3858100 0.0 1028156